Temp
80 83 82 74 61 58 56 63 68 66 70 79 81 78 74 74 70 60 73 78 78 77 80 81 82 83 83 83 83 83 83 83 83 83 83 83 83 83 84 84 84 84 84 84 84 83 84 84 84
83 86 77 68 56 53 57 68 66 69 76 82 83 81 75 69 74 71 71 78 79 79 79 80 82 83 83 83 83 83 83 83 83 83 83 84 84 84 84 84 84 84 84 84 84 84 84 84 84
86 85 68 60 56 53 57 68 71 74 78 78 79 82 76 67 73 74 77 79 79 78 78 79 82 83 83 83 83 83 84 84 83 83 83 84 84 84 84 84 84 84 84 84 84 84 84 83 84
82 74 68 58 60 63 66 68 75 74 79 81 80 73 77 81 76 77 79 79 78 78 79 81 83 83 83 83 83 83 83 83 83 84 84 84 84 84 84 84 84 84 84 83 84 85 84 83 85
78 69 60 58 61 66 71 71 75 72 75 78 80 71 72 79 79 78 78 79 76 76 78 80 82 83 83 83 83 83 83 83 83 84 84 84 84 84 84 84 84 84 84 84 83 83 84 85 84
69 69 59 59 63 69 75 77 75 76 80 80 76 74 70 77 76 77 79 77 78 76 78 79 82 83 83 83 83 83 84 84 84 84 84 84 84 84 84 84 84 84 84 83 83 84 84 84 84
73 63 61 62 64 68 73 78 73 74 76 77 82 68 70 74 78 79 78 78 77 78 77 78 79 82 84 83 84 83 84 84 84 84 84 84 84 84 84 83 83 84 83 83 83 83 82 82 83
74 69 64 66 60 64 74 78 81 76 73 84 84 68 65 74 79 80 77 76 76 76 77 76 75 77 77 78 84 84 84 84 83 84 83 82 83 83 84 83 83 84 84 84 84 83 82 82 82
80 65 60 66 68 70 77 76 81 84 79 81 83 79 79 79 80 76 73 73 74 75 75 76 75 74 75 76 80 83 84 84 84 83 84 81 74 75 75 80 83 83 83 84 84 84 83 82 82
72 64 70 79 76 74 77 79 80 78 75 76 77 81 81 80 75 72 72 71 71 72 74 75 76 76 75 80 76 76 76 75 75 75 73 72 71 71 76 77 82 83 82 83 82 84 84 83 74
75 68 78 83 83 82 80 79 82 74 68 73 71 75 76 75 74 73 73 74 73 74 75 75 76 75 76 77 74 73 72 73 72 72 70 70 71 71 72 70 72 72 78 73 75 75 75 74 72
73 80 81 82 83 81 78 81 77 77 75 80 77 77 76 74 73 73 73 74 74 74 75 75 76 75 74 74 74 73 72 72 71 71 71 69 69 69 70 70 70 70 71 72 72 72 73 74 73
78 80 83 84 82 81 83 79 77 77 80 82 80 78 75 75 74 75 75 74 74 74 76 76 75 75 73 74 73 73 73 73 72 71 70 69 68 67 68 68 69 71 71 71 71 72 72 71 73
83 83 83 84 82 83 79 78 79 76 81 79 77 76 76 75 74 74 73 72 74 74 75 76 75 76 74 73 73 74 74 74 72 71 70 70 67 67 69 68 69 69 70 70 71 71 71 71 71
82 76 78 80 81 79 81 72 71 77 79 74 73 74 73 73 74 73 73 72 74 74 74 74 76 76 74 74 74 74 74 75 72 73 72 70 69 69 69 68 69 70 69 71 72 72 72 72 72
74 73 65 76 79 79 78 62 72 77 76 72 72 72 71 71 72 73 74 73 74 74 73 74 79 77 75 75 73 73 73 72 73 72 71 71 71 70 69 69 69 70 69 70 70 71 70 70 70
67 61 65 72 80 78 75 63 72 77 75 71 70 70 70 69 69 69 71 73 73 73 74 73 74 74 73 72 72 72 73 72 72 72 71 72 72 72 70 70 70 70 69 69 70 70 71 69 70
60 61 68 68 74 77 70 67 71 74 74 71 69 68 67 67 68 68 71 73 73 73 73 74 74 73 72 72 72 72 72 72 72 72 71 72 73 72 71 70 69 70 69 69 70 71 70 71 70
68 66 66 75 81 74 70 69 69 72 72 68 67 67 67 66 68 68 71 74 73 73 72 71 72 72 71 71 70 70 70 71 71 71 71 71 73 72 70 69 69 69 68 68 70 70 70 68 70
68 66 67 75 81 74 67 65 69 71 70 69 67 68 68 66 68 68 70 71 70 71 71 71 71 71 71 72 71 71 70 71 71 71 71 72 73 72 70 70 69 68 68 68 68 70 68 68 68
68 63 69 70 74 72 68 60 63 69 71 72 71 69 68 67 67 67 68 69 70 71 71 70 70 70 71 71 71 71 71 71 71 70 71 71 72 71 71 72 70 69 68 68 68 70 70 68 70
60 74 75 74 65 57 67 49 57 62 65 69 69 67 66 66 68 67 67 67 70 71 71 71 70 71 72 72 71 71 70 69 70 70 71 71 72 72 72 71 70 70 70 69 69 72 70 69 68
68 75 76 73 65 59 61 52 55 59 60 64 67 68 68 67 68 68 69 71 71 73 72 73 72 71 71 72 72 71 70 69 70 71 71 70 71 72 72 71 70 69 69 70 71 70 70 70 69
78 70 66 60 57 51 56 53 52 55 61 64 68 70 71 70 71 71 72 71 70 72 74 74 72 71 72 72 72 71 70 70 70 70 68 69 70 70 71 72 71 70 70 69 70 71 70 70 70
67 58 49 49 48 48 53 54 56 63 66 68 69 71 72 72 70 70 70 70 70 71 74 75 72 71 72 72 72 72 71 70 70 70 70 69 69 70 70 71 71 70 71 71 71 71 71 71 69
63 60 50 44 44 49 56 50 59 66 70 70 71 72 74 72 72 72 73 72 72 74 74 75 71 71 72 72 72 72 71 70 71 72 71 70 71 71 72 72 72 71 72 72 72 71 71 71 70
61 56 59 50 44 46 49 55 63 66 67 68 70 71 73 74 74 74 74 74 72 73 73 75 72 71 72 73 72 72 72 72 73 73 73 72 72 72 73 72 72 72 72 72 71 71 71 71 70
66 68 56 51 44 41 47 49 51 59 64 67 68 71 74 75 75 76 75 73 73 73 72 76 73 72 73 73 74 73 71 71 72 72 73 73 73 73 73 72 72 72 72 72 72 71 71 70 70
63 58 54 54 50 46 43 48 59 60 63 65 67 70 72 74 75 75 75 76 75 76 73 75 73 71 70 71 72 73 74 75 74 74 74 74 74 73 72 73 72 72 72 72 71 71 71 71 71
67 64 59 53 49 46 47 50 68 65 67 69 70 72 74 76 76 76 76 74 73 72 73 73 72 70 70 72 73 73 73 73 71 72 71 73 72 72 72 73 72 72 72 72 71 71 73 70 70
MSLP
1006.66 1006.65 1006.80 1007.04 1008.23 1009.25 1010.15 1009.85 1009.48 1008.93 1007.63 1006.94 1007.17 1007.07 1007.95 1008.71 1009.67 1011.26 1011.16 1011.33 1011.99 1012.71 1013.14 1013.60 1013.79 1014.00 1014.35 1014.54 1014.83 1015.17 1015.34 1015.53 1015.61 1015.56 1015.72 1015.93 1016.13 1016.35 1016.54 1016.69 1016.88 1017.09 1017.25 1017.51 1017.63 1017.67 1017.66 1017.63 1017.69
1006.55 1006.63 1006.85 1007.55 1009.20 1010.12 1010.31 1009.84 1009.40 1008.84 1008.03 1007.24 1006.99 1007.25 1007.96 1009.17 1009.83 1010.85 1011.47 1011.80 1012.02 1012.75 1013.20 1013.63 1013.89 1014.13 1014.47 1014.75 1015.01 1015.37 1015.63 1015.81 1015.99 1016.07 1016.10 1016.24 1016.45 1016.59 1016.77 1016.87 1017.04 1017.30 1017.49 1017.69 1017.73 1017.61 1017.68 1017.71 1017.85
1006.53 1006.61 1007.64 1008.61 1009.79 1010.55 1010.11 1009.73 1009.38 1008.84 1008.17 1007.71 1007.49 1007.44 1008.40 1009.68 1010.40 1011.04 1011.43 1012.02 1012.19 1013.09 1013.51 1013.86 1014.19 1014.46 1014.71 1014.99 1015.25 1015.52 1015.86 1016.07 1016.23 1016.39 1016.42 1016.45 1016.55 1016.83 1016.88 1017.02 1017.26 1017.46 1017.62 1017.79 1017.84 1017.83 1017.80 1017.83 1018.01
1006.60 1007.25 1008.55 1009.39 1010.26 1010.38 1010.11 1009.70 1009.05 1008.34 1007.90 1007.76 1007.56 1008.38 1009.09 1009.22 1010.33 1010.97 1011.69 1012.23 1012.52 1013.25 1013.77 1014.08 1014.37 1014.63 1014.90 1015.28 1015.51 1015.70 1016.01 1016.28 1016.47 1016.70 1016.89 1016.98 1017.02 1017.01 1017.21 1017.27 1017.37 1017.61 1017.77 1017.91 1017.94 1018.00 1018.25 1018.35 1018.23
1006.90 1007.73 1008.83 1009.83 1010.34 1010.07 1009.90 1009.76 1008.47 1007.82 1008.03 1007.71 1007.77 1008.98 1009.82 1010.41 1010.63 1011.01 1011.80 1012.33 1012.88 1013.58 1013.93 1014.16 1014.55 1014.87 1015.26 1015.56 1015.89 1016.06 1016.17 1016.39 1016.69 1016.81 1017.03 1017.18 1017.19 1017.26 1017.32 1017.55 1017.66 1017.83 1017.99 1017.99 1018.13 1018.35 1018.47 1018.43 1018.48
1007.19 1008.02 1009.13 1009.73 1010.01 1009.71 1009.34 1008.85 1008.37 1007.84 1007.57 1007.83 1008.31 1009.12 1010.56 1010.76 1010.80 1011.30 1011.76 1012.57 1013.00 1013.43 1013.93 1014.26 1014.66 1015.01 1015.26 1015.41 1015.82 1016.29 1016.49 1016.71 1016.86 1017.04 1017.16 1017.21 1017.40 1017.50 1017.62 1017.80 1017.89 1017.97 1018.09 1018.09 1018.25 1018.41 1018.56 1018.63 1018.71
1007.10 1008.25 1009.29 1009.71 1009.85 1009.24 1008.77 1008.82 1008.78 1008.10 1007.87 1007.83 1008.07 1009.43 1010.93 1011.25 1011.31 1011.49 1012.15 1012.61 1013.23 1013.57 1014.19 1014.53 1014.90 1015.17 1015.49 1015.82 1016.12 1016.22 1016.54 1016.81 1016.95 1017.03 1017.22 1017.35 1017.44 1017.59 1017.77 1017.95 1017.97 1018.07 1018.13 1018.20 1018.30 1018.45 1018.57 1018.67 1018.77
1006.81 1007.99 1008.79 1008.97 1009.15 1008.87 1008.17 1008.04 1007.83 1008.17 1008.05 1007.77 1008.02 1009.25 1010.69 1011.17 1011.76 1012.45 1012.93 1013.41 1013.75 1014.08 1014.26 1014.54 1015.03 1015.31 1015.61 1015.85 1016.01 1016.32 1016.39 1016.70 1016.93 1017.14 1017.30 1017.43 1017.57 1017.60 1017.94 1018.13 1018.04 1018.06 1018.20 1018.27 1018.33 1018.36 1018.55 1018.64 1018.67
1006.85 1007.43 1007.81 1007.88 1007.94 1007.63 1007.51 1007.67 1007.74 1007.67 1007.98 1008.03 1008.23 1008.45 1009.14 1010.75 1011.90 1012.67 1013.45 1014.03 1014.43 1014.60 1014.67 1014.62 1014.94 1015.26 1015.68 1015.91 1016.07 1016.26 1016.49 1016.82 1017.02 1017.31 1017.52 1017.61 1017.93 1018.07 1018.29 1018.31 1018.16 1018.13 1018.20 1018.19 1018.21 1018.18 1018.37 1018.37 1018.48
1006.64 1007.04 1006.23 1006.15 1006.25 1006.09 1006.54 1006.68 1007.21 1007.67 1008.27 1008.42 1008.47 1008.75 1009.94 1011.06 1012.11 1012.51 1013.15 1013.77 1014.27 1014.52 1014.87 1014.92 1014.86 1015.19 1015.67 1015.87 1016.11 1016.33 1016.57 1016.82 1017.23 1017.51 1017.78 1018.08 1018.23 1018.41 1018.46 1018.45 1018.18 1018.01 1018.14 1017.99 1018.10 1017.87 1017.96 1018.01 1018.44
1006.08 1006.02 1004.94 1004.87 1005.02 1005.63 1005.97 1006.52 1006.95 1007.57 1008.41 1008.03 1008.19 1009.21 1010.19 1011.27 1012.05 1012.31 1012.81 1013.09 1013.66 1014.04 1014.53 1014.81 1015.08 1015.21 1015.57 1015.77 1016.14 1016.30 1016.72 1016.88 1017.25 1017.60 1017.83 1018.13 1018.33 1018.41 1018.43 1018.51 1018.28 1018.14 1018.10 1018.21 1018.07 1017.91 1017.95 1018.20 1018.54
1005.55 1004.81 1004.47 1004.19 1004.29 1005.25 1005.72 1006.38 1006.91 1007.08 1007.13 1007.28 1008.29 1009.00 1010.17 1011.24 1011.74 1011.97 1012.45 1013.10 1013.64 1013.91 1014.29 1014.69 1014.91 1015.07 1015.56 1015.78 1016.03 1016.29 1016.65 1016.88 1017.25 1017.55 1017.77 1018.13 1018.37 1018.52 1018.49 1018.47 1018.20 1018.15 1018.12 1018.14 1018.11 1018.04 1017.89 1017.91 1018.19
1004.73 1004.37 1003.93 1003.82 1003.96 1004.76 1005.40 1006.14 1006.39 1006.91 1007.27 1007.77 1008.80 1009.48 1010.27 1011.02 1011.59 1012.21 1012.55 1013.15 1013.79 1014.17 1014.27 1014.70 1014.96 1015.23 1015.47 1015.77 1015.98 1016.13 1016.38 1016.61 1016.97 1017.43 1017.67 1017.93 1018.34 1018.50 1018.57 1018.36 1018.21 1018.13 1018.13 1018.13 1018.11 1017.93 1017.79 1017.77 1017.83
1004.55 1004.00 1003.69 1003.44 1004.29 1004.56 1005.27 1006.18 1006.49 1007.36 1007.61 1008.29 1008.93 1009.58 1010.36 1010.74 1011.19 1011.94 1012.30 1012.94 1013.15 1013.73 1014.15 1014.67 1014.83 1015.02 1015.31 1015.68 1015.73 1015.80 1016.21 1016.40 1016.70 1017.07 1017.36 1017.65 1018.08 1018.31 1018.29 1018.27 1018.06 1018.13 1018.21 1018.12 1018.01 1017.78 1017.62 1017.56 1017.69
1004.36 1003.93 1003.63 1003.41 1004.04 1004.74 1005.24 1006.70 1007.15 1007.54 1007.89 1008.66 1009.38 1009.87 1010.43 1010.86 1011.41 1011.56 1011.81 1012.11 1012.54 1013.33 1013.78 1014.43 1014.71 1014.71 1015.33 1015.55 1015.50 1015.68 1015.89 1016.15 1016.50 1016.71 1016.98 1017.22 1017.70 1017.85 1017.90 1017.94 1017.97 1017.95 1018.15 1017.96 1017.70 1017.51 1017.44 1017.46 1017.44
1004.82 1004.47 1004.45 1003.79 1004.09 1004.68 1005.11 1006.64 1007.18 1007.73 1008.09 1008.99 1009.82 1010.39 1010.80 1010.99 1011.33 1012.08 1012.04 1012.04 1012.45 1012.87 1013.65 1014.15 1014.46 1014.76 1015.13 1015.61 1015.45 1015.47 1015.67 1015.97 1016.14 1016.31 1016.71 1016.93 1017.25 1017.44 1017.67 1017.65 1017.79 1017.83 1018.03 1017.95 1017.71 1017.79 1017.60 1017.43 1017.37
1006.01 1005.67 1005.16 1004.22 1003.68 1004.39 1005.62 1006.62 1007.30 1007.83 1008.45 1009.18 1009.92 1010.49 1010.87 1011.29 1011.64 1012.01 1012.17 1012.22 1012.50 1012.86 1013.21 1013.94 1014.22 1014.55 1015.17 1015.30 1015.45 1015.43 1015.54 1015.85 1015.84 1016.01 1016.45 1016.68 1016.79 1017.15 1017.35 1017.56 1017.64 1017.68 1017.97 1017.91 1017.75 1017.83 1017.69 1017.60 1017.39
1006.86 1006.38 1005.81 1004.95 1004.09 1004.49 1005.58 1006.44 1007.38 1007.96 1008.64 1009.45 1010.26 1010.84 1011.31 1011.80 1012.27 1012.42 1012.43 1012.49 1012.77 1012.84 1013.14 1013.67 1014.02 1014.57 1014.93 1015.13 1015.39 1015.34 1015.49 1015.51 1015.78 1015.90 1016.24 1016.24 1016.44 1016.72 1017.14 1017.31 1017.56 1017.60 1017.92 1017.93 1017.71 1017.60 1017.62 1017.48 1017.45
1006.65 1006.44 1006.08 1004.69 1003.97 1004.78 1005.89 1006.78 1007.56 1008.45 1009.24 1010.25 1010.89 1011.19 1011.47 1011.99 1012.17 1012.38 1012.56 1012.53 1012.72 1012.91 1013.35 1013.63 1014.17 1014.52 1014.85 1015.06 1015.36 1015.40 1015.51 1015.66 1015.75 1015.65 1015.86 1016.18 1016.15 1016.43 1016.78 1017.11 1017.39 1017.49 1017.84 1017.82 1017.67 1017.55 1017.52 1017.60 1017.45
1006.59 1006.43 1005.76 1004.92 1004.14 1005.05 1006.65 1008.29 1008.85 1009.58 1009.81 1010.29 1010.82 1010.99 1011.49 1011.91 1012.27 1012.35 1012.51 1012.84 1012.91 1012.98 1013.14 1013.77 1013.87 1014.21 1014.53 1014.55 1014.88 1015.07 1015.28 1015.39 1015.22 1015.13 1015.42 1015.89 1015.92 1016.18 1016.62 1016.86 1017.39 1017.38 1017.77 1017.77 1017.58 1017.52 1017.57 1017.52 1017.47
1006.02 1006.04 1005.55 1004.85 1004.94 1005.66 1006.95 1009.15 1009.66 1009.84 1009.88 1010.07 1010.49 1010.97 1011.37 1011.68 1012.05 1012.26 1012.51 1012.90 1012.88 1012.99 1013.16 1013.43 1013.60 1013.93 1014.07 1014.35 1014.94 1015.18 1015.39 1015.42 1015.25 1015.32 1015.39 1015.58 1015.58 1015.88 1016.21 1016.43 1016.90 1017.15 1017.46 1017.49 1017.35 1017.32 1017.45 1017.50 1017.39
1005.72 1004.69 1005.10 1004.96 1005.58 1006.71 1007.34 1010.17 1010.49 1010.41 1010.29 1009.99 1010.07 1010.62 1010.97 1011.45 1011.93 1012.05 1012.26 1012.52 1012.78 1012.91 1012.97 1013.05 1013.24 1013.59 1013.97 1014.29 1014.70 1014.92 1015.14 1015.40 1015.12 1015.21 1014.95 1015.36 1015.42 1015.67 1015.77 1016.13 1016.45 1016.71 1017.00 1017.18 1017.18 1017.09 1017.11 1017.38 1017.48
1005.14 1004.84 1005.31 1005.07 1006.45 1007.67 1008.61 1010.01 1010.29 1010.73 1010.61 1009.87 1009.73 1009.84 1010.25 1010.80 1011.13 1011.65 1011.88 1011.96 1012.31 1012.56 1012.66 1012.89 1013.28 1013.56 1013.91 1013.99 1014.11 1014.56 1014.99 1015.11 1015.06 1014.98 1015.04 1015.34 1015.31 1015.36 1015.47 1015.71 1016.09 1016.56 1016.66 1016.73 1016.82 1016.99 1017.03 1017.12 1017.29
1004.69 1005.09 1005.76 1006.62 1007.71 1009.11 1009.41 1010.21 1010.45 1010.28 1009.08 1009.27 1009.55 1009.59 1009.67 1010.13 1010.76 1010.77 1011.25 1011.65 1011.91 1012.15 1012.39 1012.76 1013.11 1013.29 1013.34 1013.61 1013.98 1014.39 1014.61 1014.91 1014.97 1014.99 1015.14 1015.22 1015.21 1015.25 1015.16 1015.24 1015.65 1016.00 1016.35 1016.43 1016.54 1016.78 1016.93 1017.00 1016.98
1005.03 1006.05 1007.11 1008.31 1009.40 1010.14 1009.96 1010.13 1008.99 1008.52 1008.47 1008.32 1008.69 1009.01 1009.10 1009.41 1010.33 1010.53 1010.78 1011.26 1011.58 1011.89 1012.22 1012.56 1012.84 1013.03 1013.07 1013.43 1013.77 1013.90 1014.17 1014.45 1014.68 1014.75 1014.78 1014.95 1014.91 1014.90 1014.84 1014.97 1015.25 1015.53 1015.71 1015.77 1016.05 1016.40 1016.56 1016.63 1016.83
1004.86 1006.01 1007.44 1009.01 1010.47 1010.59 1010.41 1009.98 1008.49 1008.18 1008.13 1008.29 1008.34 1008.67 1008.86 1008.94 1009.74 1010.17 1010.15 1010.66 1011.09 1011.47 1011.84 1012.07 1012.28 1012.49 1012.80 1013.20 1013.41 1013.59 1013.82 1014.15 1014.11 1014.17 1014.31 1014.27 1014.21 1014.07 1014.21 1014.47 1014.71 1014.96 1015.19 1015.42 1015.66 1016.11 1016.20 1016.29 1016.40
1004.77 1005.97 1006.73 1008.87 1010.75 1011.07 1010.68 1009.75 1007.95 1007.71 1007.84 1007.76 1007.65 1008.47 1008.05 1008.30 1008.95 1009.37 1009.68 1009.95 1010.48 1010.94 1011.10 1011.41 1011.77 1012.24 1012.69 1013.07 1013.28 1013.37 1013.55 1013.86 1014.00 1013.81 1013.64 1013.82 1013.71 1013.70 1013.81 1014.01 1014.30 1014.63 1014.91 1015.24 1015.57 1015.85 1015.90 1015.93 1016.01
1004.23 1005.19 1006.94 1008.79 1010.67 1011.49 1010.83 1010.02 1008.68 1007.63 1007.11 1007.08 1007.07 1006.73 1007.15 1007.51 1008.23 1008.75 1009.13 1009.56 1010.08 1010.31 1010.65 1011.14 1011.49 1011.98 1012.34 1012.69 1012.97 1013.19 1013.54 1013.55 1013.62 1013.36 1013.43 1013.55 1013.50 1013.47 1013.61 1013.81 1014.07 1014.36 1014.66 1014.97 1015.27 1015.49 1015.49 1015.63 1015.67
1004.44 1005.31 1006.81 1008.36 1009.47 1010.63 1010.55 1009.28 1006.45 1006.15 1005.78 1006.20 1006.38 1006.17 1006.45 1007.09 1007.70 1008.26 1008.66 1009.13 1009.41 1009.91 1010.42 1010.96 1011.54 1012.04 1012.49 1012.80 1013.01 1013.05 1013.03 1013.18 1013.44 1013.45 1013.48 1013.58 1013.55 1013.55 1013.60 1013.65 1013.82 1014.09 1014.37 1014.64 1014.96 1015.09 1015.15 1015.27 1015.32
1004.17 1004.77 1005.87 1007.87 1009.49 1009.86 1009.47 1007.36 1005.48 1005.46 1005.57 1005.87 1006.05 1005.73 1006.03 1006.61 1007.17 1007.71 1008.25 1009.08 1009.50 1009.88 1010.16 1010.73 1011.38 1011.97 1012.29 1012.57 1012.82 1013.13 1013.14 1013.29 1013.59 1013.85 1013.83 1013.82 1013.93 1013.87 1013.82 1013.75 1013.84 1014.10 1014.23 1014.30 1014.45 1014.59 1014.62 1014.80 1014.94
Wind_Speed
3 4 1 3 6 6 3 2 5 6 5 2 9 3 5 5 1 3 8 11 16 14 13 13 16 18 18 17 17 18 18 18 17 18 18 18 18 17 16 15 13 14 14 13 11 11 12 12 12
2 4 3 2 7 4 2 2 3 5 4 3 5 5 5 4 5 11 8 15 18 13 12 11 16 16 17 17 16 17 16 17 16 16 16 16 16 16 15 14 14 13 13 12 12 11 12 11 13
2 3 4 5 3 3 2 6 5 7 3 5 0 3 4 3 12 12 12 17 17 13 11 12 17 16 17 16 16 15 15 15 15 15 15 15 16 14 14 13 12 12 11 10 9 11 10 10 12
2 4 4 6 4 3 2 2 5 5 4 2 2 6 4 7 13 8 18 17 16 13 11 15 18 18 17 16 16 16 15 14 14 14 14 14 13 13 11 11 10 10 9 8 7 9 9 9 8
3 3 5 5 2 1 2 9 6 6 1 2 3 3 7 6 14 22 18 16 15 12 10 14 18 17 17 15 13 15 15 14 13 13 13 12 13 12 11 10 8 8 7 5 5 6 7 8 7
4 2 5 4 3 1 2 9 6 1 5 8 10 6 3 15 20 18 18 15 13 13 11 12 18 18 17 17 15 13 13 13 12 12 12 12 11 10 9 9 7 6 5 4 4 4 5 7 7
4 4 3 3 5 5 3 8 3 4 2 3 7 4 4 12 13 17 15 15 14 12 11 9 9 14 18 15 14 14 13 13 13 13 13 11 11 10 8 7 6 5 4 3 3 4 5 6 7
3 4 2 3 11 5 7 6 8 4 3 3 8 5 7 11 14 13 11 11 12 11 11 9 7 7 6 7 16 15 14 13 13 13 11 9 8 7 8 5 4 4 2 2 3 5 5 7 9
2 3 3 5 7 5 10 8 8 3 2 2 3 5 12 19 16 14 11 8 7 8 9 10 8 7 6 6 9 14 14 13 11 9 11 6 2 3 3 5 4 3 5 6 7 7 6 8 10
3 2 4 5 7 10 16 11 11 6 5 2 2 13 20 19 17 17 15 13 11 11 9 9 9 10 7 7 4 6 5 4 4 4 3 3 2 1 3 3 3 6 8 8 7 9 9 8 3
5 5 6 6 7 10 13 8 4 7 3 7 17 20 23 21 17 17 15 15 13 12 9 10 8 8 9 6 3 3 2 3 3 5 5 4 3 2 1 1 2 2 5 3 3 3 3 3 3
3 11 7 6 8 7 9 7 6 7 4 9 17 22 19 20 17 17 16 15 15 14 12 10 9 9 7 4 4 4 4 3 3 4 5 3 2 2 3 3 4 2 2 4 3 2 4 4 5
7 7 6 2 12 7 9 5 5 1 9 15 18 20 20 17 16 10 9 9 7 11 11 10 8 8 6 7 4 5 5 5 5 4 5 4 3 4 3 4 3 3 2 2 4 3 3 4 4
6 6 5 6 9 10 9 5 1 2 11 17 17 17 16 17 17 12 14 12 12 10 10 9 9 8 8 7 7 6 5 5 5 4 5 6 4 4 4 4 4 3 1 3 3 3 3 3 2
7 3 3 2 5 6 10 4 1 5 13 14 13 12 12 14 13 15 15 16 14 9 8 6 9 9 8 8 8 5 6 5 5 5 6 6 6 5 5 4 3 3 2 4 3 3 2 2 3
5 5 3 3 7 7 6 5 5 11 15 13 10 9 10 10 11 4 10 9 12 13 12 8 8 9 7 7 6 4 4 4 5 4 4 6 7 6 5 3 3 2 2 2 2 2 1 2 2
6 0 3 8 5 9 5 3 5 9 11 10 9 9 9 6 4 2 5 8 9 11 13 10 7 5 6 6 4 4 5 4 4 3 4 5 6 6 5 4 3 3 1 2 1 1 1 1 2
2 4 5 8 2 4 4 2 8 10 10 9 7 5 6 5 2 4 3 4 5 9 10 11 7 5 5 4 4 3 3 3 2 3 4 5 4 5 4 3 4 3 2 3 1 1 0 1 2
4 1 9 7 3 3 4 7 9 7 6 7 4 4 4 3 5 6 4 4 5 3 5 5 7 5 4 3 3 3 3 1 3 4 5 5 5 5 5 3 4 3 3 4 2 1 1 1 1
3 4 10 5 5 4 4 13 7 6 2 4 8 9 6 4 6 7 7 6 5 5 5 6 7 6 5 3 2 2 2 3 2 3 4 5 5 6 5 5 4 5 3 4 4 2 1 1 0
8 4 5 7 3 4 9 6 6 3 4 6 4 4 6 9 11 8 7 8 6 8 8 7 8 6 7 6 2 2 2 2 0 1 3 4 6 6 6 6 5 5 4 4 4 3 3 2 1
7 6 9 10 5 4 4 4 4 4 4 6 7 7 8 7 8 6 6 7 8 7 6 6 7 7 6 6 4 6 4 4 3 3 3 3 5 5 6 5 5 5 4 4 4 3 3 2 3
12 5 7 4 5 4 3 6 7 3 7 9 9 8 8 8 11 11 11 9 6 6 7 7 7 6 6 7 7 5 4 3 2 2 2 3 5 6 6 6 6 5 4 4 5 3 3 2 2
11 3 6 5 5 3 3 5 6 7 10 5 5 8 9 9 8 9 8 7 6 6 7 6 7 7 7 6 6 7 7 5 3 3 3 3 3 4 6 6 5 5 5 5 4 5 5 4 3
4 6 4 5 5 5 2 2 10 6 4 8 14 11 8 9 7 7 8 8 6 8 9 8 8 7 7 7 7 7 7 6 6 5 4 4 3 3 5 6 6 5 5 5 5 5 5 4 3
6 9 8 5 3 3 3 5 4 5 8 6 5 8 8 10 8 9 11 9 8 8 7 7 7 7 6 6 7 6 6 4 5 5 4 4 4 4 5 6 6 6 6 5 5 4 4 4 4
3 3 4 9 4 3 3 7 10 8 9 9 12 10 12 13 12 13 9 9 7 7 9 8 7 6 6 5 5 6 6 6 5 6 4 3 4 3 5 5 5 5 6 6 5 4 5 5 4
6 7 3 4 4 4 5 5 8 7 8 8 8 15 15 13 12 10 9 8 7 7 6 7 7 8 6 7 5 5 5 5 5 3 4 3 2 3 4 5 5 5 5 5 5 4 5 5 4
3 2 6 6 6 7 2 8 9 12 10 10 8 11 13 13 13 11 9 9 10 7 6 6 6 6 5 5 4 4 3 3 1 2 2 2 1 2 3 4 5 5 5 5 5 6 5 6 5
4 9 7 7 6 1 5 10 4 9 11 13 12 12 11 13 13 12 11 9 9 8 8 7 6 7 5 4 3 4 4 5 5 5 5 5 5 5 3 2 2 3 5 5 5 6 5 6 6
Wind_Direction
287 243 245 34 52 68 158 33 143 303 350 330 149 207 106 33 17 198 134 134 133 140 145 145 141 136 129 123 122 121 120 119 117 116 117 118 119 119 117 124 125 124 119 118 116 107 112 114 119
268 187 40 84 82 76 218 254 360 315 334 41 45 75 48 85 70 119 113 142 137 141 145 148 146 140 132 128 126 126 124 121 116 116 118 117 118 120 119 117 122 119 120 124 127 124 122 131 128
260 28 68 72 73 88 36 39 32 335 252 343 154 68 66 94 113 136 131 139 136 141 144 152 149 144 140 138 133 128 125 120 119 117 117 118 121 121 121 122 119 118 124 130 134 145 144 137 133
47 10 41 72 61 25 15 34 168 242 281 265 64 81 81 136 140 133 139 140 138 140 144 158 154 153 149 145 141 135 130 128 125 122 121 119 118 118 116 121 124 127 123 131 145 139 137 136 137
60 57 56 76 58 349 121 143 210 215 282 359 37 57 92 128 118 135 144 146 137 140 152 156 161 158 155 151 147 143 141 137 134 134 131 131 131 126 127 125 124 119 125 132 131 136 150 147 140
24 82 51 66 76 228 190 172 216 138 39 101 101 104 56 138 142 149 147 145 145 146 158 162 166 166 164 159 157 154 149 148 147 141 144 140 136 134 135 133 137 133 142 155 142 158 166 168 153
127 68 89 59 29 80 147 151 217 158 171 147 135 78 89 157 152 148 145 144 148 148 149 158 167 172 173 170 166 166 160 155 163 157 156 155 148 150 150 154 163 158 178 203 202 212 204 185 176
96 91 105 186 174 186 209 205 211 186 222 2 137 152 168 170 146 138 132 137 146 151 157 154 157 168 167 174 176 174 172 174 172 165 157 163 169 166 151 156 188 181 214 258 265 254 221 204 198
127 29 146 192 153 201 198 170 163 159 115 295 187 167 139 139 141 132 127 134 151 163 166 165 163 161 153 164 182 183 173 176 179 171 162 166 103 94 117 181 221 232 266 277 269 260 242 212 211
122 190 220 163 166 183 173 171 166 159 145 268 85 113 130 142 146 145 153 161 169 171 176 181 170 162 157 175 184 154 175 155 153 160 116 143 116 193 201 241 257 273 307 287 295 267 254 237 182
194 211 229 176 158 179 175 164 129 141 201 211 158 140 146 152 158 159 167 178 175 166 175 182 177 163 165 163 164 155 153 157 153 173 162 168 163 225 200 250 266 299 306 319 330 298 286 209 176
183 240 250 133 145 139 159 122 163 198 219 156 152 149 149 159 169 172 173 171 178 178 182 176 177 171 169 154 178 165 171 170 165 194 186 175 191 238 239 234 255 282 294 304 311 317 290 244 193
177 215 259 125 165 166 133 138 172 102 119 132 146 149 159 166 174 170 163 144 177 186 181 184 171 178 167 174 182 171 182 187 180 184 206 183 204 217 235 239 251 282 318 325 310 322 275 252 219
303 241 199 225 153 177 126 143 70 76 138 137 152 158 167 175 171 161 163 171 168 176 182 173 184 186 174 184 194 194 181 196 185 183 203 197 193 222 218 232 236 264 309 307 291 279 274 260 207
287 334 58 266 161 122 103 34 263 154 136 145 144 155 154 175 168 177 169 175 171 164 135 180 191 186 188 195 202 188 195 194 192 207 206 191 191 209 212 213 244 251 270 282 317 321 328 209 179
355 48 22 267 136 168 92 231 241 153 154 156 146 154 175 184 184 176 181 172 169 155 164 181 211 190 183 205 213 194 191 197 202 193 188 191 207 194 213 211 223 236 247 313 320 351 295 298 268
3 57 277 312 179 151 169 219 199 178 168 157 158 168 184 195 168 122 161 165 170 167 159 189 218 181 191 190 199 203 202 211 211 191 183 208 201 190 199 210 229 223 212 277 316 239 224 334 306
2 347 347 280 225 50 87 152 168 181 167 163 162 162 183 205 139 137 170 144 156 171 166 192 189 186 177 146 200 222 218 232 205 224 210 197 199 187 191 187 202 203 205 269 114 289 312 222 284
277 286 310 263 61 112 149 168 178 181 117 133 155 208 210 139 138 151 179 160 146 135 155 172 170 205 161 162 188 221 219 205 229 218 185 213 198 181 181 194 194 195 216 241 266 231 221 259 298
297 312 288 298 233 133 111 49 73 127 128 164 190 204 206 198 191 180 174 168 171 177 178 173 187 195 197 191 184 170 148 216 205 209 183 206 211 184 181 182 197 200 200 243 260 219 251 265 32
286 232 236 210 73 48 107 20 16 16 130 175 195 194 202 204 198 195 172 174 171 203 197 188 195 207 213 189 143 71 66 341 297 179 209 186 196 191 188 190 181 212 191 218 224 217 194 238 252
282 232 246 244 109 201 72 225 296 281 226 204 191 185 186 190 192 197 190 177 193 208 200 202 208 203 215 196 180 178 183 202 232 219 208 170 185 203 197 188 195 204 199 234 236 220 209 172 226
245 309 241 238 115 69 30 95 265 177 226 224 212 197 186 201 190 185 198 203 206 186 194 200 193 206 201 183 197 184 200 209 229 248 245 187 196 200 206 195 192 206 206 228 236 246 220 196 202
260 211 34 55 105 78 205 134 257 195 214 203 212 222 187 190 218 177 188 184 206 197 195 199 197 215 200 190 198 196 209 218 229 252 241 240 221 210 212 195 192 196 210 223 227 240 244 234 228
124 57 347 1 15 213 349 46 235 203 188 195 196 216 189 167 195 186 179 190 201 198 197 200 190 208 196 194 199 206 216 212 227 233 228 221 219 214 215 196 195 193 205 211 214 223 234 230 208
200 161 151 197 195 245 45 241 240 197 184 201 192 206 192 165 183 206 194 194 193 196 194 188 183 205 191 197 210 213 217 217 219 227 225 233 224 218 197 195 193 194 198 207 209 214 228 241 234
241 200 196 102 36 76 252 292 303 175 195 199 187 215 186 179 184 202 194 191 177 186 197 184 185 199 198 204 210 221 216 223 238 251 253 250 238 231 217 200 194 194 194 199 199 213 223 223 235
164 164 89 3 127 231 282 272 241 245 190 180 214 178 181 179 188 193 197 176 172 198 189 185 178 187 192 200 203 223 235 220 240 241 239 229 251 207 186 194 198 198 200 199 197 215 223 216 230
350 346 45 114 123 164 212 261 211 209 190 171 169 166 167 175 185 190 189 183 178 182 185 188 161 165 193 204 191 218 231 225 231 353 99 119 55 81 174 194 201 205 206 204 204 216 218 214 226
204 206 154 130 231 150 154 269 216 204 174 166 173 165 167 174 184 188 174 169 171 173 178 179 161 161 189 189 157 152 103 82 76 63 50 55 55 46 50 94 182 232 235 225 216 221 213 212 222